Wind_Speed
63 66 65 69 67 53 34 8 4 8 11 3 2 3 4 4 8 2 3 4 4 4 5 5 5 5 4 4 5 3 3 4 3 3 8 6 4 4 3 4 2 4 4 2
63 71 73 71 69 50 22 4 4 2 3 4 2 3 3 5 6 5 6 3 4 5 3 5 5 3 4 3 1 1 3 1 4 1 4 6 5 9 4 1 3 3 3 2
66 66 73 73 62 42 24 5 5 0 1 2 4 6 6 6 7 4 4 8 8 6 5 3 4 5 6 2 3 6 3 1 6 4 4 2 3 4 9 4 3 0 1 4
69 73 75 72 53 46 20 2 4 6 6 5 6 5 8 12 6 4 7 4 5 6 5 5 4 4 6 6 4 4 4 5 5 5 7 5 6 5 6 4 1 4 4 3
72 68 74 65 51 40 6 5 5 4 5 7 11 7 8 13 7 7 7 7 9 7 5 4 1 4 1 1 5 3 2 3 6 2 8 7 7 8 5 3 1 1 5 6
73 70 69 59 50 31 5 5 14 6 11 8 10 8 12 12 9 4 7 9 8 5 5 2 3 2 2 2 3 2 2 2 3 2 8 5 3 3 4 3 4 4 2 8
69 68 62 53 36 27 14 13 13 4 5 11 9 13 14 12 9 8 9 11 6 4 8 6 5 4 6 7 9 7 3 3 2 3 2 1 4 6 4 3 4 3 5 2
67 63 60 46 33 23 29 23 7 3 5 11 9 17 9 12 6 7 10 5 5 10 5 2 2 3 4 9 12 6 5 2 2 2 2 1 4 6 5 6 1 3 8 5
67 61 56 41 33 31 21 20 10 4 8 8 15 13 15 8 6 7 8 6 7 3 3 2 3 4 7 4 5 7 6 6 4 2 1 3 5 5 4 4 0 11 7 5
61 61 48 37 33 25 20 12 9 6 4 6 10 4 11 7 5 5 6 5 2 2 0 2 3 3 3 1 1 3 2 2 4 1 1 3 2 3 5 5 5 4 4 4
63 54 39 31 20 18 20 13 10 5 3 4 11 10 6 6 5 5 7 4 2 2 1 3 3 2 2 2 2 4 3 2 2 1 3 4 3 2 3 7 3 1 2 4
57 47 41 31 21 22 24 12 12 15 8 3 30 24 20 9 8 6 3 6 4 4 3 1 1 2 2 2 2 3 2 6 4 5 5 7 6 6 2 1 0 2 5 4
54 47 36 28 24 19 18 27 33 27 5 6 7 6 15 20 17 15 4 1 5 2 5 3 2 1 3 3 4 5 5 5 4 4 5 8 8 3 4 1 3 3 3 3
51 38 32 26 22 27 32 28 19 17 7 4 2 7 8 11 14 13 8 14 8 9 3 2 2 2 3 3 3 1 5 4 5 4 5 3 2 4 4 3 1 6 8 6
45 33 25 24 27 25 21 22 9 5 9 4 4 11 7 11 14 15 17 18 6 2 2 2 2 2 3 3 1 3 3 6 4 5 7 5 2 6 4 4 3 7 7 6
42 28 24 21 22 26 26 4 13 18 21 4 3 3 4 7 12 12 9 7 1 3 4 3 2 4 3 1 3 7 1 5 3 4 4 5 6 3 6 6 6 7 2 5
34 30 28 27 27 15 6 5 8 12 11 3 3 3 3 9 8 3 2 4 1 2 1 1 2 1 4 2 4 6 11 7 7 4 5 3 2 4 7 8 5 2 13 15
37 34 32 25 20 14 8 12 13 8 4 5 4 2 3 10 2 2 2 2 1 2 3 3 1 1 2 3 6 6 10 4 5 6 3 4 7 8 3 8 11 8 7 11
39 33 28 12 6 3 4 13 14 13 6 3 3 5 4 5 3 3 2 3 1 3 3 3 2 3 5 6 5 7 2 2 3 5 2 2 3 4 5 8 8 8 6 9
34 19 8 2 3 22 14 7 4 5 3 3 3 4 3 5 3 1 3 2 3 2 4 1 3 4 7 6 8 7 3 2 3 3 4 2 4 7 7 8 9 9 7 7
7 4 2 12 13 4 3 2 3 1 1 2 3 5 6 2 4 3 3 3 2 1 4 4 3 3 5 5 7 5 3 2 5 6 7 10 8 6 7 6 7 7 7 4
10 18 16 6 2 3 4 3 2 3 5 3 5 4 6 3 4 3 2 3 1 3 1 2 3 4 7 8 7 4 2 0 4 7 9 12 12 11 8 6 7 7 5 3
18 5 3 4 1 3 7 7 4 3 4 4 5 6 4 4 3 3 3 2 3 0 2 3 4 3 6 7 6 5 7 6 3 6 9 10 11 10 8 5 8 8 6 5
3 4 3 4 3 4 5 5 5 4 5 6 8 3 4 2 3 2 4 4 2 1 2 5 3 5 7 7 6 6 6 7 2 1 5 8 9 11 13 13 11 11 11 9
3 3 3 4 3 2 1 3 5 3 5 5 4 4 3 2 3 1 3 3 3 5 4 4 3 6 7 7 6 6 6 7 6 5 3 2 8 10 15 16 14 12 10 10
1 2 3 2 4 3 3 2 3 3 4 4 4 3 3 3 4 3 6 5 5 4 4 3 5 6 5 5 6 8 10 10 9 11 11 11 11 15 18 16 15 14 13 12
2 1 2 3 4 3 1 0 3 6 4 3 3 4 6 2 3 4 4 4 3 3 3 3 5 6 5 6 9 8 6 4 5 7 7 7 8 8 11 12 16 16 16 15
Wind_Direction
172 177 171 162 149 147 144 99 91 166 153 99 143 162 200 188 145 96 104 117 177 124 145 86 58 93 75 26 301 21 177 159 268 98 164 91 8 2 21 85 331 45 110 268
164 163 160 154 153 154 123 92 97 170 14 143 182 242 235 153 128 161 157 146 94 102 104 97 128 114 108 295 127 69 285 323 344 60 300 18 37 350 25 14 79 359 98 258
172 167 159 155 153 155 127 119 116 59 324 280 172 175 193 133 177 159 132 120 116 126 115 104 136 146 174 220 277 154 38 311 176 193 214 175 43 8 3 31 61 260 240 283
163 159 158 157 156 161 136 113 155 173 172 227 220 166 160 156 158 172 121 135 150 130 123 172 210 111 128 216 269 169 154 218 189 242 202 141 114 98 34 66 286 101 261 301
170 168 165 158 162 167 106 129 137 162 145 132 187 176 177 166 146 153 166 151 124 100 126 127 83 92 323 175 307 352 260 299 318 296 167 120 119 116 99 48 115 140 228 284
165 161 158 161 167 170 120 172 113 112 159 168 180 185 163 164 134 198 153 128 101 123 180 132 124 66 26 282 265 311 286 295 330 303 154 133 41 254 149 194 219 195 166 234
158 157 159 163 165 174 130 125 116 98 176 178 171 158 156 165 164 166 144 124 120 175 86 58 35 327 268 247 248 207 231 312 325 266 46 122 239 207 221 96 285 333 284 258
155 155 159 162 161 134 137 141 145 126 139 158 149 160 149 133 168 110 111 79 113 118 107 75 196 285 265 238 245 187 141 83 346 85 16 122 169 210 194 168 228 303 276 53
153 154 161 155 147 134 145 165 151 127 127 192 164 157 142 145 141 106 98 86 111 105 110 136 217 216 227 142 184 208 144 119 115 354 282 222 228 348 85 105 326 258 270 67
152 154 152 142 143 149 146 153 167 129 105 163 155 128 141 148 119 109 106 122 128 100 132 154 215 222 116 118 176 146 43 338 161 204 216 304 68 24 318 101 235 285 121 129
152 150 142 140 148 143 152 152 171 119 104 92 118 117 135 122 112 129 180 85 313 76 88 135 241 98 247 63 265 138 153 137 242 71 59 303 301 357 117 217 249 262 87 89
142 139 139 143 144 155 150 130 139 144 80 146 92 75 60 74 171 125 140 169 126 170 94 284 43 19 64 174 262 141 225 180 184 153 218 222 242 223 206 135 215 315 110 131
140 136 140 141 144 144 139 114 123 100 98 45 50 63 66 82 75 131 122 63 127 172 168 168 212 70 117 169 241 198 242 172 156 77 275 243 242 152 129 153 67 306 154 89
140 141 144 144 134 127 125 114 120 112 106 100 3 86 52 71 75 72 106 125 111 127 94 118 157 170 168 228 224 148 203 115 193 233 257 36 320 148 100 63 43 309 90 82
150 145 143 139 132 127 118 112 86 133 122 139 136 88 87 90 95 93 113 121 111 130 78 102 227 240 63 288 27 272 203 235 179 230 239 169 170 134 183 156 73 69 70 25
159 148 146 136 133 129 120 52 80 125 115 98 104 78 113 130 122 123 138 159 178 157 147 211 236 179 114 227 255 246 299 304 184 184 137 145 167 168 87 98 77 93 43 322
155 152 148 141 141 142 81 150 136 138 116 93 85 84 186 157 132 96 69 67 358 103 296 218 195 303 134 210 230 265 298 289 303 259 158 155 167 144 117 133 127 118 72 57
146 145 141 136 117 97 81 84 129 134 99 99 105 113 84 168 160 114 181 137 96 306 200 326 186 84 158 250 255 286 242 218 50 33 48 153 131 139 174 138 97 74 61 54
139 130 122 107 68 78 127 100 72 61 81 127 108 143 189 169 167 144 30 118 93 247 193 212 143 222 217 215 226 271 358 83 37 14 322 39 123 143 113 96 80 77 61 54
125 112 73 40 115 121 104 35 25 14 344 40 131 138 160 136 145 134 103 144 209 202 238 137 196 247 235 205 207 225 228 109 173 176 306 249 99 91 91 97 91 93 90 74
91 87 87 138 130 95 62 95 103 227 60 207 210 130 133 234 116 139 157 185 220 179 257 145 253 260 226 170 127 97 61 344 291 162 120 108 108 104 104 102 113 114 106 106
144 116 115 133 84 59 108 172 221 189 209 186 130 140 147 160 123 114 187 178 106 236 184 81 270 262 141 122 127 158 172 216 42 104 133 130 123 126 130 142 150 148 160 194
122 85 100 102 209 77 168 184 207 196 151 177 130 129 125 43 78 83 109 135 198 94 88 227 227 256 133 144 153 155 132 99 77 101 107 121 133 149 167 185 178 181 189 216
110 113 92 162 203 214 209 178 169 191 130 125 130 99 118 132 72 156 104 206 135 189 218 234 230 184 155 142 152 136 147 138 102 116 171 174 181 190 198 207 211 210 211 224
109 103 138 194 181 193 99 54 88 105 129 110 95 53 88 78 92 192 151 163 229 208 230 219 203 142 132 142 150 160 165 171 183 220 254 207 210 211 214 219 220 224 228 229
67 100 45 70 67 1 19 61 109 135 115 94 81 129 111 185 154 163 199 184 214 238 202 203 122 117 128 151 151 155 160 175 203 218 228 235 234 232 240 238 228 234 235 229
81 355 3 100 104 179 194 250 160 129 99 145 130 122 190 143 164 192 176 208 209 181 143 128 126 129 138 128 133 145 158 191 244 255 261 261 275 270 228 218 234 229 226 229
Height
701 707 719 734 750 763 775 792 818 824 826 834 838 837 823 814 819 821 822 828 829 833 837 841 843 848 849 850 852 854 855 882 883 857 847 843 848 858 860 864 858 854 871 882
698 705 714 729 743 757 767 803 822 827 826 832 837 826 814 814 820 823 824 827 828 832 838 857 844 847 850 850 851 856 858 883 898 859 851 848 859 856 849 859 864 876 870 874
696 705 716 730 742 750 762 795 822 832 831 828 823 823 819 820 820 822 822 827 831 837 840 842 848 846 849 849 848 850 855 874 884 891 870 863 883 866 860 856 872 886 890 882
693 702 715 728 736 748 759 781 805 805 825 826 819 813 813 819 822 820 825 831 832 837 861 847 845 841 849 849 845 850 858 880 862 851 846 853 858 865 869 882 878 890 889 888
687 701 712 727 737 748 756 775 785 797 804 805 817 813 817 815 817 823 826 832 831 841 860 850 860 845 847 847 845 846 849 858 849 846 844 846 856 858 862 868 873 885 879 885
687 700 715 728 738 746 755 759 765 777 797 804 809 808 808 811 818 820 821 825 839 849 842 839 843 844 847 847 849 851 850 860 858 848 844 859 866 874 859 865 867 869 881 871
691 707 716 731 739 744 746 753 762 783 800 794 798 796 802 810 818 822 818 826 835 837 837 841 844 847 847 846 845 844 851 854 855 859 847 866 856 854 854 857 853 856 851 846
694 706 719 731 740 742 749 756 763 776 789 787 791 796 802 811 815 818 820 827 833 834 841 857 855 860 852 842 837 838 839 853 867 878 860 850 847 847 855 856 863 861 855 844
695 707 723 732 737 743 754 760 763 768 782 789 784 795 803 816 823 824 828 833 834 837 848 860 852 856 846 839 835 830 837 845 875 870 868 861 854 839 836 844 871 848 848 846
699 712 724 732 739 748 755 758 762 764 779 779 783 798 802 808 814 830 834 835 840 839 861 863 862 860 832 853 839 838 856 861 881 896 899 858 838 835 835 864 868 840 838 841
701 714 728 736 743 749 752 759 762 764 775 780 782 791 801 805 811 831 831 842 844 853 862 864 863 857 858 853 838 840 857 874 883 874 900 885 836 835 845 851 837 835 836 839
708 721 731 740 747 751 754 759 762 764 774 792 788 797 801 802 802 814 824 830 832 844 853 860 857 854 863 852 871 834 859 854 865 861 870 843 834 835 831 832 834 833 836 835
714 724 735 743 749 753 753 757 762 767 784 792 797 805 805 802 805 809 824 825 827 834 833 847 854 846 851 864 857 841 830 830 852 851 836 833 830 828 828 829 831 832 830 832
720 730 738 745 751 753 756 759 766 771 783 805 812 807 806 808 809 810 812 819 823 828 833 844 846 851 838 845 841 840 838 829 834 836 831 828 824 826 828 829 829 829 829 831
726 734 741 748 752 757 760 765 771 776 781 805 812 809 811 811 813 815 818 821 825 833 839 843 846 838 838 837 836 841 826 829 840 842 825 826 826 825 826 827 828 830 831 831
731 738 745 751 756 760 764 775 779 777 779 795 819 813 814 816 817 819 823 824 826 829 835 838 832 828 838 844 843 822 818 818 815 820 816 820 821 821 823 825 827 829 829 829
736 744 750 755 759 763 769 777 776 777 780 792 814 822 818 818 819 822 824 825 828 830 834 834 832 832 834 840 839 820 817 815 812 812 813 816 817 823 822 825 826 828 830 831
740 748 754 760 765 770 773 774 776 778 778 784 813 821 822 818 825 829 824 831 831 832 834 831 832 831 833 837 819 815 813 811 811 813 812 814 816 819 820 823 825 828 830 831
745 752 759 764 770 774 776 778 778 779 784 799 803 819 829 815 821 823 827 828 842 829 835 832 830 833 831 818 814 812 810 811 813 813 813 814 816 818 820 824 827 830 832 833
749 755 761 776 774 775 777 782 786 787 787 790 798 800 818 814 818 826 833 831 838 838 830 821 827 825 808 805 807 807 809 809 810 813 817 815 817 821 824 826 828 831 832 833
749 760 769 772 774 777 783 796 802 799 798 793 793 796 808 807 819 824 824 835 831 834 828 828 823 822 804 798 804 805 807 808 809 810 813 815 818 821 824 827 829 830 832 833
751 756 768 773 775 782 788 799 791 791 789 786 788 795 799 804 805 818 822 822 825 825 819 833 834 809 797 799 802 804 806 807 808 809 812 814 817 821 824 826 827 829 830 831
754 759 767 774 782 795 789 806 788 792 778 779 782 796 798 802 805 819 820 825 837 818 835 833 819 800 796 798 801 803 805 808 810 811 813 815 817 820 822 824 825 827 828 829
755 765 783 779 788 778 773 771 770 769 772 777 782 794 802 805 814 820 822 818 817 830 839 815 806 795 796 797 800 803 806 808 810 812 813 814 816 818 819 820 822 823 824 826
754 757 774 769 761 763 760 758 763 764 769 776 788 796 801 810 819 814 814 817 824 819 812 807 795 791 793 797 799 802 804 807 809 811 812 813 814 815 816 817 818 819 821 823
754 754 763 761 767 772 770 766 767 766 772 778 785 796 808 806 808 807 814 808 817 809 799 792 789 791 793 795 797 799 802 805 806 808 809 810 811 812 811 813 815 816 817 819
755 765 759 762 767 773 771 767 769 767 776 790 791 799 796 801 804 805 801 807 800 793 790 788 787 791 793 794 797 799 801 802 804 805 806 806 807 807 808 810 809 811 812 814